| time (UTC) | temp C | wind direction | speed KPH | gust KPH | rain 1hr cm | rain 24hr cm | rain mn cm | humidity % | barometer mb |
| 20260505022017 | 16 | 315 | 1.6 | 8.0 | 0.00 | 0.00 | 0.00 | 65 | 1011.1 |
| 20260505021017 | 16 | 315 | 1.6 | 6.4 | 0.00 | 0.00 | 0.00 | 63 | 1011.1 |
| 20260505020017 | 16 | 315 | 1.6 | 12.9 | 0.00 | 0.00 | 0.00 | 61 | 1011.0 |
| 20260505015017 | 16 | 315 | 1.6 | 6.4 | 0.00 | 0.00 | 0.00 | 60 | 1011.0 |
| 20260505014017 | 16 | 315 | 1.6 | 6.4 | 0.00 | 0.00 | 0.00 | 61 | 1010.9 |
| 20260505013037 | 16 | 315 | 1.6 | 6.4 | 0.00 | 0.00 | 0.00 | 60 | 1010.8 |
| 20260505012017 | 16 | 0.0 | 3.2 | 0.00 | 0.00 | 0.00 | 60 | 1010.8 | |
| 20260505011037 | 17 | 0.0 | 1.6 | 0.00 | 0.00 | 0.00 | 60 | 1010.6 | |
| 20260505010017 | 17 | 0.0 | 3.2 | 0.00 | 0.00 | 0.00 | 59 | 1010.5 | |
| 20260505005017 | 17 | 203 | 1.6 | 3.2 | 0.00 | 0.00 | 0.00 | 58 | 1010.4 |
| 20260505004017 | 17 | 225 | 1.6 | 4.8 | 0.00 | 0.00 | 0.00 | 57 | 1010.2 |
| 20260505003017 | 18 | 248 | 1.6 | 9.7 | 0.00 | 0.00 | 0.00 | 56 | 1010.2 |
| 20260505002017 | 18 | 248 | 1.6 | 4.8 | 0.00 | 0.00 | 0.00 | 55 | 1010.1 |
| 20260505001016 | 18 | 0.0 | 4.8 | 0.00 | 0.00 | 0.00 | 54 | 1010.1 | |
| 20260505000016 | 19 | 0.0 | 1.6 | 0.00 | 0.00 | 0.00 | 52 | 1010.1 | |
| 20260504235018 | 20 | 0.0 | 3.2 | 0.00 | 0.00 | 0.00 | 50 | 1010.0 | |
| 20260504234017 | 20 | 225 | 1.6 | 4.8 | 0.00 | 0.00 | 0.00 | 49 | 1009.9 |
| 20260504233037 | 21 | 0.0 | 4.8 | 0.00 | 0.00 | 0.00 | 47 | 1010.0 | |
| 20260504232017 | 21 | 248 | 3.2 | 6.4 | 0.00 | 0.00 | 0.00 | 46 | 1010.1 |
| 20260504231016 | 21 | 180 | 1.6 | 6.4 | 0.00 | 0.00 | 0.00 | 45 | 1010.1 |
| 20260504230016 | 22 | 270 | 1.6 | 8.0 | 0.00 | 0.00 | 0.00 | 44 | 1010.1 |
| 20260504225037 | 22 | 225 | 1.6 | 9.7 | 0.00 | 0.00 | 0.00 | 44 | 1010.0 |
| 20260504224037 | 22 | 270 | 1.6 | 6.4 | 0.00 | 0.00 | 0.00 | 43 | 1010.0 |
| 20260504223016 | 22 | 270 | 4.8 | 8.0 | 0.00 | 0.00 | 0.00 | 42 | 1010.0 |
| 20260504222016 | 22 | 293 | 6.4 | 16.1 | 0.00 | 0.00 | 0.00 | 42 | 1010.0 |
| 20260504221018 | 22 | 248 | 4.8 | 8.0 | 0.00 | 0.00 | 0.00 | 42 | 1010.1 |
| 20260504220016 | 22 | 270 | 8.0 | 16.1 | 0.00 | 0.00 | 0.00 | 41 | 1010.1 |
| 20260504215037 | 22 | 248 | 4.8 | 17.7 | 0.00 | 0.00 | 0.00 | 41 | 1010.2 |
| 20260504214016 | 22 | 315 | 11.3 | 20.9 | 0.00 | 0.00 | 0.00 | 39 | 1010.2 |
| 20260504213016 | 22 | 315 | 11.3 | 24.1 | 0.00 | 0.00 | 0.00 | 40 | 1010.1 |
| 20260504212016 | 22 | 270 | 11.3 | 32.2 | 0.00 | 0.00 | 0.00 | 41 | 1010.3 |
| 20260504211016 | 22 | 315 | 9.7 | 20.9 | 0.00 | 0.00 | 0.00 | 41 | 1010.3 |
| 20260504210017 | 23 | 293 | 11.3 | 24.1 | 0.00 | 0.00 | 0.00 | 40 | 1010.3 |
| 20260504205016 | 23 | 270 | 12.9 | 24.1 | 0.00 | 0.00 | 0.00 | 39 | 1010.2 |
| 20260504204016 | 23 | 270 | 11.3 | 20.9 | 0.00 | 0.00 | 0.00 | 39 | 1010.2 |
| 20260504203017 | 23 | 315 | 9.7 | 29.0 | 0.00 | 0.00 | 0.00 | 40 | 1010.1 |
| 20260504202016 | 23 | 315 | 11.3 | 22.5 | 0.00 | 0.00 | 0.00 | 39 | 1010.2 |
| 20260504201038 | 23 | 315 | 14.5 | 29.0 | 0.00 | 0.00 | 0.00 | 39 | 1010.3 |
| 20260504200016 | 23 | 270 | 8.0 | 19.3 | 0.00 | 0.00 | 0.00 | 40 | 1010.5 |
| 20260504195018 | 23 | 270 | 9.7 | 24.1 | 0.00 | 0.00 | 0.00 | 40 | 1010.5 |
| 20260504194016 | 23 | 293 | 9.7 | 27.4 | 0.00 | 0.00 | 0.00 | 39 | 1010.9 |
| 20260504193016 | 22 | 293 | 9.7 | 22.5 | 0.00 | 0.00 | 0.00 | 41 | 1011.1 |
| 20260504192016 | 22 | 270 | 9.7 | 22.5 | 0.00 | 0.00 | 0.00 | 41 | 1011.1 |
| 20260504191037 | 22 | 315 | 9.7 | 20.9 | 0.00 | 0.00 | 0.00 | 40 | 1011.2 |
| 20260504190016 | 22 | 315 | 9.7 | 22.5 | 0.00 | 0.00 | 0.00 | 39 | 1011.2 |
| 20260504185017 | 22 | 270 | 9.7 | 22.5 | 0.00 | 0.00 | 0.00 | 39 | 1011.5 |
| 20260504184017 | 22 | 270 | 8.0 | 19.3 | 0.00 | 0.00 | 0.00 | 40 | 1011.4 |
| 20260504183016 | 22 | 270 | 6.4 | 19.3 | 0.00 | 0.00 | 0.00 | 41 | 1011.6 |
| 20260504182016 | 22 | 315 | 8.0 | 19.3 | 0.00 | 0.00 | 0.00 | 42 | 1011.8 |
| 20260504181017 | 22 | 315 | 8.0 | 19.3 | 0.00 | 0.00 | 0.00 | 39 | 1011.9 |
| 20260504180016 | 22 | 293 | 8.0 | 19.3 | 0.00 | 0.00 | 0.00 | 42 | 1011.9 |
| 20260504175017 | 22 | 315 | 8.0 | 20.9 | 0.00 | 0.00 | 0.00 | 39 | 1012.1 |
| 20260504174057 | 21 | 315 | 12.9 | 24.1 | 0.00 | 0.00 | 0.00 | 41 | 1012.3 |
| 20260504173016 | 21 | 293 | 8.0 | 22.5 | 0.00 | 0.00 | 0.00 | 43 | 1012.4 |
| 20260504172016 | 21 | 293 | 9.7 | 20.9 | 0.00 | 0.00 | 0.00 | 44 | 1012.6 |
| 20260504171016 | 21 | 293 | 6.4 | 16.1 | 0.00 | 0.00 | 0.00 | 44 | 1012.8 |
| 20260504151016 | 19 | 315 | 6.4 | 16.1 | 0.00 | 0.00 | 0.00 | 54 | 1013.8 |
| 20260504141015 | 17 | 315 | 9.7 | 22.5 | 0.00 | 0.00 | 0.00 | 58 | 1013.9 |
| 20260504081016 | 8 | 270 | 1.6 | 6.4 | 0.00 | 0.00 | 0.00 | 76 | 1015.1 |
| 20260504050017 | 8 | 293 | 1.6 | 4.8 | 0.00 | 0.00 | 0.00 | 70 | 1014.8 |
| 20260504045016 | 7 | 248 | 1.6 | 6.4 | 0.00 | 0.00 | 0.00 | 70 | 1014.8 |
| 20260504044016 | 7 | 270 | 1.6 | 6.4 | 0.00 | 0.00 | 0.00 | 70 | 1014.7 |
| 20260504043017 | 7 | 0.0 | 3.2 | 0.00 | 0.00 | 0.00 | 70 | 1014.5 | |
| 20260504042016 | 7 | 270 | 1.6 | 6.4 | 0.00 | 0.00 | 0.00 | 71 | 1014.6 |
| 20260504041017 | 7 | 270 | 1.6 | 3.2 | 0.00 | 0.00 | 0.00 | 73 | 1014.5 |
| 20260504040016 | 7 | 0.0 | 1.6 | 0.00 | 0.00 | 0.00 | 73 | 1014.3 | |
| 20260504035017 | 7 | 270 | 1.6 | 6.4 | 0.00 | 0.00 | 0.00 | 73 | 1014.2 |
| 20260504034017 | 6 | 248 | 1.6 | 4.8 | 0.00 | 0.00 | 0.00 | 74 | 1014.2 |
| 20260504033017 | 6 | 0.0 | 3.2 | 0.00 | 0.00 | 0.00 | 75 | 1014.3 | |
| 20260504032017 | 6 | 0.0 | 1.6 | 0.00 | 0.00 | 0.00 | 74 | 1014.2 | |
| 20260504031058 | 7 | 0.0 | 3.2 | 0.00 | 0.00 | 0.00 | 74 | 1014.1 | |
| 20260504030037 | 7 | 0.0 | 0.0 | 0.00 | 0.00 | 0.00 | 75 | 1014.2 | |
| 20260504025018 | 7 | 0.0 | 1.6 | 0.00 | 0.00 | 0.00 | 74 | 1014.2 | |
| 20260504024017 | 7 | 0.0 | 1.6 | 0.00 | 0.00 | 0.00 | 72 | 1014.1 | |
| 20260504023037 | 7 | 0.0 | 6.4 | 0.00 | 0.00 | 0.00 | 73 | 1014.3 |